DELTA 1 DEB, 7019

Orbit data source: Space-Track

DELTA 1 DEB, 7019 is space debris in SSO originally from a launch on Tue, 06 Nov 1973 UTC launched from the Air Force Western Test Range (AFWTR). Debris objects in space refer to the collection of defunct objects orbiting the Earth. Examples of debris include non-operational satellites, rocket bodies, and fragments generated from explosions, collisions, or faulty payload assembly.

Loading next visibility...
Identifier
7019, 1973-086K
Orbit
SSO
Country
Flag of USUS
Related business
Manufacturer
Unknown
Mission
Spacecraft
Bus & Motor
Unknown
Mass
Unknown
Launch date (UTC)
1973-11-06 (53 years ago)
Launch vehicle
Unknown
Launch site
Air Force Western Test Range (AFWTR)
Object type
Payload
Rocket body
Debris
Shape & HBR
Unknown shape, 0.5 m
Radar Cross Section
Medium (>0.1 m² and <1 m²)

Expand to show TLE details & history
Last TLE update: 12 hours ago

TLE from 12 hours ago
0 DELTA 1 DEB
1 07019U 73086K   26265.51238691  .00000004  00000-0  35960-3 0  9997
2 07019 102.2125 280.8301 0066133  23.6105 103.2086 12.42819197396945
Epoch: 2026-09-22T12:17Z
TLE epoch observation values (Epoch: 2026-09-22T12:17:50.229Z)
Latitude
50.88298°
Longitude
-69.64714°
Altitude
1,514.815 km
Speed
7.107 km/s
True Right ascension
07h 44m 45s
True Declination
50° 43' 51"
Sunlit
Object was in daylight at epoch
Visualization orbit readout
Latitude
Unknown
Longitude
Unknown
Altitude
Unknown
Speed
Unknown
Apparent Right ascension
Unknown
Apparent Declination
Unknown
Sunlit
N/A
Visualization observer readout
Local Sidereal Time
17:12:11
Azimuth
Unknown
Elevation
Unknown
Doppler factor
Unknown
Orbital elements
Apogee altitude
1,544.308 km
Perigee altitude
1,440.209 km
Semi-major axis
7,870.396 km
Eccentricity
0.00661
Inclination
102.2125°
RAAN
280.8301°
Arg. of periapsis
23.6105°
True anomaly
103.94497°
Mean anomaly
103.2086°
Eccentric anomaly
103.57693°
Mean motion
3.10848 °/min
Orbital period
115.81 mins
BSTAR
0.0003596
Loading maneuver chart data...
Computing Atmospheric mass density...
Loading historical data...
Loading historical data...
Loading historical data...
Loading historical data...
Loading historical data...
Loading historical data...
Loading historical data...

Documentation

Showing up to 5 results
|